Time,TemperatureF,DewpointF,PressureIn,WindDirection,WindDirectionDegrees,WindSpeedMPH,WindSpeedGustMPH,Humidity,HourlyPrecipIn,Conditions,Clouds,dailyrainin,SoftwareType,DateUTC
2013-02-20 00:00:00,17.4,5.9,29.90,NW,324,0.0,0.0,60,0.00,,---,0.00,VWS V14.01,2013-02-20 05:00:00,
2013-02-20 00:01:00,17.4,5.9,29.90,WSW,251,0.0,0.0,60,0.00,,---,0.00,VWS V14.01,2013-02-20 05:01:00,
2013-02-20 00:06:00,17.4,5.9,29.90,NNW,338,0.0,0.0,60,0.00,,---,0.00,VWS V14.01,2013-02-20 05:06:00,
2013-02-20 00:11:00,17.4,5.9,29.90,West,259,0.0,0.0,60,0.00,,---,0.00,VWS V14.01,2013-02-20 05:11:00,
2013-02-20 00:16:00,17.4,6.3,29.90,WSW,255,0.0,0.0,61,0.00,,---,0.00,VWS V14.01,2013-02-20 05:16:00,
2013-02-20 00:21:00,17.4,6.3,29.90,SW,236,0.0,0.0,61,0.00,,---,0.00,VWS V14.01,2013-02-20 05:21:00,
2013-02-20 00:26:00,17.1,5.6,29.90,NW,308,0.0,0.0,60,0.00,,---,0.00,VWS V14.01,2013-02-20 05:26:00,
2013-02-20 00:31:00,17.1,5.6,29.90,WNW,300,0.0,0.0,60,0.00,,---,0.00,VWS V14.01,2013-02-20 05:31:00,
2013-02-20 00:36:00,16.9,5.4,29.90,NW,318,0.0,0.0,60,0.00,,---,0.00,VWS V14.01,2013-02-20 05:36:00,
2013-02-20 00:41:00,16.9,5.4,29.90,West,279,0.0,0.0,60,0.00,,---,0.00,VWS V14.01,2013-02-20 05:41:00,
2013-02-20 00:46:00,16.7,5.6,29.90,WSW,238,0.0,0.0,61,0.00,,---,0.00,VWS V14.01,2013-02-20 05:46:00,
2013-02-20 00:51:00,16.7,5.6,29.90,SW,217,0.0,0.0,61,0.00,,---,0.00,VWS V14.01,2013-02-20 05:51:00,
2013-02-20 00:56:00,16.7,5.6,29.90,West,272,0.0,0.0,61,0.00,,---,0.00,VWS V14.01,2013-02-20 05:56:00,
2013-02-20 01:01:00,16.7,5.6,29.90,West,273,0.0,0.0,61,0.00,,---,0.00,VWS V14.01,2013-02-20 06:01:00,
2013-02-20 01:06:00,16.7,5.6,29.90,West,267,0.0,0.0,61,0.00,,---,0.00,VWS V14.01,2013-02-20 06:06:00,
2013-02-20 01:11:00,16.7,6.0,29.90,West,276,0.0,0.0,62,0.00,,---,0.00,VWS V14.01,2013-02-20 06:11:00,
2013-02-20 01:16:00,16.7,6.0,29.90,West,274,0.0,0.0,62,0.00,,---,0.00,VWS V14.01,2013-02-20 06:16:00,
2013-02-20 01:21:00,16.7,6.0,29.90,WNW,289,0.0,0.0,62,0.00,,---,0.00,VWS V14.01,2013-02-20 06:21:00,
2013-02-20 01:26:00,16.7,6.0,29.90,NW,315,0.0,0.0,62,0.00,,---,0.00,VWS V14.01,2013-02-20 06:26:00,
2013-02-20 01:31:00,16.7,6.0,29.90,WNW,293,0.0,0.0,62,0.00,,---,0.00,VWS V14.01,2013-02-20 06:31:00,
2013-02-20 01:36:00,16.7,6.3,29.90,NW,313,0.0,0.0,63,0.00,,---,0.00,VWS V14.01,2013-02-20 06:36:00,
2013-02-20 01:41:00,16.5,6.1,29.93,West,281,0.0,0.0,63,0.00,,---,0.00,VWS V14.01,2013-02-20 06:41:00,
2013-02-20 01:46:00,16.5,6.5,29.93,NW,307,0.0,0.0,64,0.00,,---,0.00,VWS V14.01,2013-02-20 06:46:00,
2013-02-20 01:52:00,16.5,6.5,29.93,NW,309,0.0,0.0,64,0.00,,---,0.00,VWS V14.01,2013-02-20 06:52:00,
2013-02-20 01:57:00,16.5,6.8,29.93,WNW,292,0.0,0.0,65,0.00,,---,0.00,VWS V14.01,2013-02-20 06:57:00,
2013-02-20 02:02:00,16.5,6.8,29.93,NW,324,0.0,0.0,65,0.00,,---,0.00,VWS V14.01,2013-02-20 07:02:00,
2013-02-20 02:07:00,16.5,7.2,29.93,NW,307,0.0,0.0,66,0.00,,---,0.00,VWS V14.01,2013-02-20 07:07:00,
2013-02-20 02:12:00,16.5,7.5,29.93,WNW,291,0.0,0.0,67,0.00,,---,0.00,VWS V14.01,2013-02-20 07:12:00,
2013-02-20 02:17:00,16.5,7.5,29.93,WSW,254,0.0,0.0,67,0.00,,---,0.00,VWS V14.01,2013-02-20 07:17:00,
2013-02-20 02:22:00,16.5,7.8,29.93,NNW,348,0.0,0.0,68,0.00,,---,0.00,VWS V14.01,2013-02-20 07:22:00,
2013-02-20 02:27:00,16.5,7.8,29.93,WNW,287,0.0,0.0,68,0.00,,---,0.00,VWS V14.01,2013-02-20 07:27:00,
2013-02-20 02:32:00,16.5,7.8,29.93,West,280,0.0,0.0,68,0.00,,---,0.00,VWS V14.01,2013-02-20 07:32:00,
2013-02-20 02:37:00,16.5,7.8,29.93,NNW,331,0.0,0.0,68,0.00,,---,0.00,VWS V14.01,2013-02-20 07:37:00,
2013-02-20 02:42:00,16.5,7.8,29.93,WNW,301,0.0,0.0,68,0.00,,---,0.00,VWS V14.01,2013-02-20 07:42:00,
2013-02-20 02:47:00,16.7,7.7,29.93,NW,313,0.0,0.0,67,0.00,,---,0.00,VWS V14.01,2013-02-20 07:47:00,
2013-02-20 02:53:00,16.7,7.7,29.93,WNW,294,0.0,0.0,67,0.00,,---,0.00,VWS V14.01,2013-02-20 07:53:00,
2013-02-20 02:58:00,16.7,7.7,29.93,WNW,300,0.0,0.0,67,0.00,,---,0.00,VWS V14.01,2013-02-20 07:58:00,
2013-02-20 03:05:00,16.7,7.3,29.93,SW,231,0.0,0.0,66,0.00,,---,0.00,VWS V14.01,2013-02-20 08:05:00,
2013-02-20 03:10:00,16.7,7.0,29.93,NW,318,0.0,0.0,65,0.00,,---,0.00,VWS V14.01,2013-02-20 08:10:00,
2013-02-20 03:15:00,16.7,7.0,29.93,WNW,301,0.0,0.0,65,0.00,,---,0.00,VWS V14.01,2013-02-20 08:15:00,
2013-02-20 03:20:00,16.7,7.0,29.93,WNW,303,0.0,0.0,65,0.00,,---,0.00,VWS V14.01,2013-02-20 08:20:00,
2013-02-20 03:25:00,16.7,7.0,29.93,WSW,251,0.0,0.0,65,0.00,,---,0.00,VWS V14.01,2013-02-20 08:25:00,
2013-02-20 03:30:00,16.7,6.7,29.93,WSW,256,0.0,0.0,64,0.00,,---,0.00,VWS V14.01,2013-02-20 08:30:00,
2013-02-20 03:35:00,16.7,7.0,29.93,West,281,0.0,0.0,65,0.00,,---,0.00,VWS V14.01,2013-02-20 08:35:00,
2013-02-20 03:40:00,16.7,7.0,29.93,NW,312,0.0,0.0,65,0.00,,---,0.00,VWS V14.01,2013-02-20 08:40:00,
2013-02-20 03:45:00,16.7,6.7,29.93,WNW,289,0.0,0.0,64,0.00,,---,0.00,VWS V14.01,2013-02-20 08:45:00,
2013-02-20 03:50:00,16.7,6.7,29.93,NW,314,0.0,0.0,64,0.00,,---,0.00,VWS V14.01,2013-02-20 08:50:00,
2013-02-20 03:56:00,16.5,6.8,29.93,NW,323,0.0,0.0,65,0.00,,---,0.00,VWS V14.01,2013-02-20 08:56:00,
2013-02-20 04:01:00,16.5,6.8,29.93,West,281,0.0,0.0,65,0.00,,---,0.00,VWS V14.01,2013-02-20 09:01:00,
2013-02-20 04:06:00,16.5,6.8,29.93,WNW,288,0.0,0.0,65,0.00,,---,0.00,VWS V14.01,2013-02-20 09:06:00,
2013-02-20 04:11:00,16.5,6.8,29.93,NW,309,0.0,0.0,65,0.00,,---,0.00,VWS V14.01,2013-02-20 09:11:00,
2013-02-20 04:16:00,16.5,7.5,29.93,NNW,345,0.0,0.0,67,0.00,,---,0.00,VWS V14.01,2013-02-20 09:16:00,
2013-02-20 04:21:00,16.2,7.5,29.93,West,259,0.0,0.0,68,0.00,,---,0.00,VWS V14.01,2013-02-20 09:21:00,
2013-02-20 04:26:00,16.0,7.9,29.96,WNW,292,0.0,0.0,70,0.00,,---,0.00,VWS V14.01,2013-02-20 09:26:00,
2013-02-20 04:31:00,16.0,8.2,29.96,NW,324,0.0,0.0,71,0.00,,---,0.00,VWS V14.01,2013-02-20 09:31:00,
2013-02-20 04:36:00,15.8,8.4,29.96,NW,322,0.0,0.0,72,0.00,,---,0.00,VWS V14.01,2013-02-20 09:36:00,
2013-02-20 04:41:00,15.6,7.9,29.96,WNW,303,0.0,0.0,71,0.00,,---,0.00,VWS V14.01,2013-02-20 09:41:00,
2013-02-20 04:47:00,15.4,7.1,29.96,NNE,21,0.0,0.0,69,0.00,,---,0.00,VWS V14.01,2013-02-20 09:47:00,
2013-02-20 04:52:00,15.4,4.8,29.96,WNW,296,0.0,0.0,62,0.00,,---,0.00,VWS V14.01,2013-02-20 09:52:00,
2013-02-20 04:57:00,15.4,4.4,29.96,NW,314,0.0,0.0,61,0.00,,---,0.00,VWS V14.01,2013-02-20 09:57:00,
2013-02-20 05:02:00,15.4,4.4,29.96,NW,309,0.0,0.0,61,0.00,,---,0.00,VWS V14.01,2013-02-20 10:02:00,
2013-02-20 05:07:00,15.6,4.2,29.99,WNW,299,0.0,0.0,60,0.00,,---,0.00,VWS V14.01,2013-02-20 10:07:00,
2013-02-20 05:12:00,15.8,4.4,29.99,NW,324,0.0,0.0,60,0.00,,---,0.00,VWS V14.01,2013-02-20 10:12:00,
2013-02-20 05:17:00,15.6,4.6,29.99,West,263,0.0,0.0,61,0.00,,---,0.00,VWS V14.01,2013-02-20 10:17:00,
2013-02-20 05:22:00,15.6,4.9,29.99,NNW,328,0.0,0.0,62,0.00,,---,0.00,VWS V14.01,2013-02-20 10:22:00,
2013-02-20 05:27:00,15.4,5.4,29.99,NNW,327,0.0,0.0,64,0.00,,---,0.00,VWS V14.01,2013-02-20 10:27:00,
2013-02-20 05:32:00,15.4,5.8,29.99,NW,309,0.0,0.0,65,0.00,,---,0.00,VWS V14.01,2013-02-20 10:32:00,
2013-02-20 05:37:00,15.3,5.9,29.99,NNW,338,0.0,0.0,66,0.00,,---,0.00,VWS V14.01,2013-02-20 10:37:00,
2013-02-20 05:42:00,15.1,5.8,29.99,NW,326,0.0,0.0,66,0.00,,---,0.00,VWS V14.01,2013-02-20 10:42:00,
2013-02-20 05:48:00,15.1,5.8,29.99,WNW,294,0.0,0.0,66,0.00,,---,0.00,VWS V14.01,2013-02-20 10:48:00,
2013-02-20 05:53:00,14.9,5.6,29.99,WSW,253,0.0,0.0,66,0.00,,---,0.00,VWS V14.01,2013-02-20 10:53:00,
2013-02-20 05:58:00,14.9,5.3,29.99,WNW,282,0.0,0.0,65,0.00,,---,0.00,VWS V14.01,2013-02-20 10:58:00,
2013-02-20 06:03:00,14.9,5.3,29.99,NW,313,0.0,0.0,65,0.00,,---,0.00,VWS V14.01,2013-02-20 11:03:00,
2013-02-20 06:08:00,14.9,5.3,29.99,West,278,0.0,0.0,65,0.00,,---,0.00,VWS V14.01,2013-02-20 11:08:00,
2013-02-20 06:13:00,15.1,5.1,29.99,NW,319,0.0,0.0,64,0.00,,---,0.00,VWS V14.01,2013-02-20 11:13:00,
2013-02-20 06:18:00,15.1,5.1,29.99,NW,313,0.0,0.0,64,0.00,,---,0.00,VWS V14.01,2013-02-20 11:18:00,
2013-02-20 06:23:00,15.1,4.8,29.99,WNW,288,0.0,0.0,63,0.00,,---,0.00,VWS V14.01,2013-02-20 11:23:00,
2013-02-20 06:28:00,15.1,4.8,29.99,WNW,288,0.0,0.0,63,0.00,,---,0.00,VWS V14.01,2013-02-20 11:28:00,
2013-02-20 06:34:00,15.1,4.8,29.99,NW,307,0.0,0.0,63,0.00,,---,0.00,VWS V14.01,2013-02-20 11:34:00,
2013-02-20 06:39:00,15.1,4.4,29.99,WSW,249,0.0,0.0,62,0.00,,---,0.00,VWS V14.01,2013-02-20 11:39:00,
2013-02-20 06:44:00,15.3,4.6,29.99,NW,304,0.0,0.0,62,0.00,,---,0.00,VWS V14.01,2013-02-20 11:44:00,
2013-02-20 06:49:00,15.3,4.6,29.99,West,269,0.0,0.0,62,0.00,,---,0.00,VWS V14.01,2013-02-20 11:49:00,
2013-02-20 06:54:00,15.3,4.2,30.02,WNW,284,0.0,0.0,61,0.00,,---,0.00,VWS V14.01,2013-02-20 11:54:00,
2013-02-20 06:59:00,15.4,4.1,30.02,NW,305,0.0,0.0,60,0.00,,---,0.00,VWS V14.01,2013-02-20 11:59:00,
2013-02-20 07:04:00,15.4,4.1,30.02,WSW,258,0.0,0.0,60,0.00,,---,0.00,VWS V14.01,2013-02-20 12:04:00,
2013-02-20 07:09:00,15.4,4.1,30.02,NNW,328,0.0,0.0,60,0.00,,---,0.00,VWS V14.01,2013-02-20 12:09:00,
2013-02-20 07:14:00,15.4,4.1,30.02,North,353,0.0,0.0,60,0.00,,---,0.00,VWS V14.01,2013-02-20 12:14:00,
2013-02-20 07:19:00,15.6,3.8,30.02,West,280,0.0,0.0,59,0.00,,---,0.00,VWS V14.01,2013-02-20 12:19:00,
2013-02-20 07:24:00,15.6,3.5,30.02,North,354,0.0,0.0,58,0.00,,---,0.00,VWS V14.01,2013-02-20 12:24:00,
2013-02-20 07:30:00,15.6,3.5,30.02,West,272,0.0,0.0,58,0.00,,---,0.00,VWS V14.01,2013-02-20 12:30:00,
2013-02-20 07:35:00,15.6,3.5,30.02,West,267,0.0,0.0,58,0.00,,---,0.00,VWS V14.01,2013-02-20 12:35:00,
2013-02-20 07:40:00,15.8,3.7,30.02,WSW,247,0.0,0.0,58,0.00,,---,0.00,VWS V14.01,2013-02-20 12:40:00,
2013-02-20 07:45:00,15.8,3.7,30.02,NW,315,0.0,0.0,58,0.00,,---,0.00,VWS V14.01,2013-02-20 12:45:00,
2013-02-20 07:50:00,15.6,3.5,30.02,NNW,336,0.0,0.0,58,0.00,,---,0.00,VWS V14.01,2013-02-20 12:50:00,
2013-02-20 07:55:00,15.6,3.1,30.02,WNW,300,0.0,0.0,57,0.00,,---,0.00,VWS V14.01,2013-02-20 12:55:00,
2013-02-20 08:00:00,15.6,3.1,30.02,NW,310,0.0,0.0,57,0.00,,---,0.00,VWS V14.01,2013-02-20 13:00:00,
2013-02-20 08:05:00,15.6,3.1,30.02,WNW,296,0.0,0.0,57,0.00,,---,0.00,VWS V14.01,2013-02-20 13:05:00,
2013-02-20 08:10:00,15.6,3.1,30.02,West,266,0.0,0.0,57,0.00,,---,0.00,VWS V14.01,2013-02-20 13:10:00,
2013-02-20 08:15:00,15.8,3.3,30.02,NW,305,0.0,0.0,57,0.00,,---,0.00,VWS V14.01,2013-02-20 13:15:00,
2013-02-20 08:20:00,15.8,3.3,30.02,WSW,245,0.0,0.0,57,0.00,,---,0.00,VWS V14.01,2013-02-20 13:20:00,
2013-02-20 08:26:00,16.0,3.5,30.05,West,260,0.0,0.0,57,0.00,,---,0.00,VWS V14.01,2013-02-20 13:26:00,
2013-02-20 08:31:00,16.0,3.5,30.05,WNW,296,0.0,0.0,57,0.00,,---,0.00,VWS V14.01,2013-02-20 13:31:00,
2013-02-20 08:36:00,16.2,3.2,30.05,NNW,330,0.0,0.0,56,0.00,,---,0.00,VWS V14.01,2013-02-20 13:36:00,
2013-02-20 08:41:00,16.3,3.4,30.05,NW,311,0.0,0.0,56,0.00,,---,0.00,VWS V14.01,2013-02-20 13:41:00,
2013-02-20 08:46:00,16.5,3.6,30.05,NNW,327,0.0,0.0,56,0.00,,---,0.00,VWS V14.01,2013-02-20 13:46:00,
2013-02-20 08:51:00,16.5,3.6,30.05,NNW,334,0.0,0.0,56,0.00,,---,0.00,VWS V14.01,2013-02-20 13:51:00,
2013-02-20 08:56:00,16.9,3.9,30.05,SSW,195,0.0,0.0,56,0.00,,---,0.00,VWS V14.01,2013-02-20 13:56:00,
2013-02-20 09:01:00,17.1,4.1,30.05,NW,317,0.0,0.0,56,0.00,,---,0.00,VWS V14.01,2013-02-20 14:01:00,
2013-02-20 09:06:00,17.2,3.9,30.05,NNW,334,0.0,0.0,55,0.00,,---,0.00,VWS V14.01,2013-02-20 14:06:00,
2013-02-20 09:11:00,17.4,4.0,30.05,NW,320,0.0,0.0,55,0.00,,---,0.00,VWS V14.01,2013-02-20 14:11:00,
2013-02-20 09:17:00,17.6,4.2,30.05,NW,319,0.0,0.0,55,0.00,,---,0.00,VWS V14.01,2013-02-20 14:17:00,
2013-02-20 09:22:00,17.6,4.2,30.05,WNW,299,0.0,0.0,55,0.00,,---,0.00,VWS V14.01,2013-02-20 14:22:00,
2013-02-20 09:27:00,17.6,3.8,30.05,NNW,332,0.0,0.0,54,0.00,,---,0.00,VWS V14.01,2013-02-20 14:27:00,
2013-02-20 09:32:00,17.6,4.2,30.05,WNW,294,0.0,0.0,55,0.00,,---,0.00,VWS V14.01,2013-02-20 14:32:00,
2013-02-20 09:37:00,18.1,4.7,30.05,NW,320,0.0,0.0,55,0.00,,---,0.00,VWS V14.01,2013-02-20 14:37:00,
2013-02-20 09:42:00,18.3,4.9,30.05,NW,309,0.0,0.0,55,0.00,,---,0.00,VWS V14.01,2013-02-20 14:42:00,
2013-02-20 09:47:00,18.3,4.5,30.05,WNW,295,0.0,0.0,54,0.00,,---,0.00,VWS V14.01,2013-02-20 14:47:00,
2013-02-20 09:52:00,18.5,4.6,30.05,NNW,345,0.0,0.0,54,0.00,,---,0.00,VWS V14.01,2013-02-20 14:52:00,
2013-02-20 09:57:00,18.5,4.6,30.05,North,353,0.0,0.0,54,0.00,,---,0.00,VWS V14.01,2013-02-20 14:57:00,
2013-02-20 10:02:00,18.7,4.8,30.05,NW,313,0.0,0.0,54,0.00,,---,0.00,VWS V14.01,2013-02-20 15:02:00,
2013-02-20 10:07:00,18.9,5.0,30.05,NNE,21,0.0,0.0,54,0.00,,---,0.00,VWS V14.01,2013-02-20 15:07:00,
2013-02-20 10:12:00,19.0,5.1,30.05,NW,324,0.0,0.0,54,0.00,,---,0.00,VWS V14.01,2013-02-20 15:12:00,
2013-02-20 10:17:00,19.0,4.7,30.05,North,356,0.0,0.0,53,0.00,,---,0.00,VWS V14.01,2013-02-20 15:17:00,
2013-02-20 10:22:00,19.0,4.7,30.05,NW,312,0.0,0.0,53,0.00,,---,0.00,VWS V14.01,2013-02-20 15:22:00,
2013-02-20 10:28:00,19.0,4.7,30.05,NW,309,0.0,0.0,53,0.00,,---,0.00,VWS V14.01,2013-02-20 15:28:00,
2013-02-20 10:33:00,19.0,4.3,30.05,NW,312,0.0,0.0,52,0.00,,---,0.00,VWS V14.01,2013-02-20 15:33:00,
2013-02-20 10:38:00,19.2,4.9,30.05,NNW,341,0.0,0.0,53,0.00,,---,0.00,VWS V14.01,2013-02-20 15:38:00,
2013-02-20 10:43:00,19.2,4.9,30.05,NNW,344,0.0,0.0,53,0.00,,---,0.00,VWS V14.01,2013-02-20 15:43:00,
2013-02-20 10:48:00,19.0,4.7,30.05,NW,312,0.0,0.0,53,0.00,,---,0.00,VWS V14.01,2013-02-20 15:48:00,
2013-02-20 10:53:00,18.9,4.6,30.08,North,350,0.0,0.0,53,0.00,,---,0.00,VWS V14.01,2013-02-20 15:53:00,
2013-02-20 10:58:00,19.0,4.7,30.08,NNW,333,0.0,0.0,53,0.00,,---,0.00,VWS V14.01,2013-02-20 15:58:00,
2013-02-20 11:03:00,19.0,4.7,30.08,NW,317,0.0,0.0,53,0.00,,---,0.00,VWS V14.01,2013-02-20 16:03:00,
2013-02-20 11:08:00,19.4,5.1,30.08,WNW,302,0.0,0.0,53,0.00,,---,0.00,VWS V14.01,2013-02-20 16:08:00,
2013-02-20 11:13:00,19.6,5.2,30.08,NNW,340,0.0,0.0,53,0.00,,---,0.00,VWS V14.01,2013-02-20 16:13:00,
2013-02-20 11:18:00,19.6,4.8,30.08,NW,312,0.0,0.0,52,0.00,,---,0.00,VWS V14.01,2013-02-20 16:18:00,
2013-02-20 11:23:00,19.6,4.4,30.08,NNW,329,0.0,0.0,51,0.00,,---,0.00,VWS V14.01,2013-02-20 16:23:00,
2013-02-20 11:28:00,19.4,4.7,30.08,NW,316,0.0,0.0,52,0.00,,---,0.00,VWS V14.01,2013-02-20 16:28:00,
2013-02-20 11:34:00,19.6,4.8,30.08,NW,322,0.0,0.0,52,0.00,,---,0.00,VWS V14.01,2013-02-20 16:34:00,
2013-02-20 11:39:00,19.6,4.8,30.08,NE,34,0.0,0.0,52,0.00,,---,0.00,VWS V14.01,2013-02-20 16:39:00,
2013-02-20 11:44:00,19.8,5.0,30.08,WSW,254,0.0,0.0,52,0.00,,---,0.00,VWS V14.01,2013-02-20 16:44:00,
2013-02-20 11:49:00,19.9,5.6,30.08,WNW,299,0.0,0.0,53,0.00,,---,0.00,VWS V14.01,2013-02-20 16:49:00,
2013-02-20 11:54:00,19.9,5.2,30.08,NW,307,0.0,0.0,52,0.00,,---,0.00,VWS V14.01,2013-02-20 16:54:00,
2013-02-20 11:59:00,19.6,4.4,30.08,NNW,343,0.0,0.0,51,0.00,,---,0.00,VWS V14.01,2013-02-20 16:59:00,
2013-02-20 12:04:00,19.8,5.4,30.08,West,272,0.0,0.0,53,0.00,,---,0.00,VWS V14.01,2013-02-20 17:04:00,
2013-02-20 12:09:00,19.9,5.6,30.08,NNW,332,0.0,0.0,53,0.00,,---,0.00,VWS V14.01,2013-02-20 17:09:00,
2013-02-20 12:14:00,19.9,5.6,30.08,WNW,301,0.0,0.0,53,0.00,,---,0.00,VWS V14.01,2013-02-20 17:14:00,
2013-02-20 12:20:00,20.1,5.3,30.08,North,10,0.0,0.0,52,0.00,,---,0.00,VWS V14.01,2013-02-20 17:20:00,
2013-02-20 12:25:00,20.3,5.5,30.08,NW,309,0.0,0.0,52,0.00,,---,0.00,VWS V14.01,2013-02-20 17:25:00,
2013-02-20 12:30:00,20.1,5.7,30.08,NW,318,0.0,0.0,53,0.00,,---,0.00,VWS V14.01,2013-02-20 17:30:00,
2013-02-20 12:35:00,20.1,5.7,30.08,NW,318,0.0,0.0,53,0.00,,---,0.00,VWS V14.01,2013-02-20 17:35:00,
2013-02-20 12:40:00,20.3,5.9,30.11,NNW,328,0.0,0.0,53,0.00,,---,0.00,VWS V14.01,2013-02-20 17:40:00,
2013-02-20 12:45:00,20.3,5.5,30.11,NNW,334,0.0,0.0,52,0.00,,---,0.00,VWS V14.01,2013-02-20 17:45:00,
2013-02-20 12:50:00,20.3,5.9,30.11,West,275,0.0,0.0,53,0.00,,---,0.00,VWS V14.01,2013-02-20 17:50:00,
2013-02-20 12:55:00,20.3,5.9,30.08,WNW,286,0.0,0.0,53,0.00,,---,0.00,VWS V14.01,2013-02-20 17:55:00,
2013-02-20 13:00:00,20.5,6.1,30.08,WNW,282,0.0,0.0,53,0.00,,---,0.00,VWS V14.01,2013-02-20 18:00:00,
2013-02-20 13:05:00,20.5,6.1,30.08,NNW,332,0.0,0.0,53,0.00,,---,0.00,VWS V14.01,2013-02-20 18:05:00,
2013-02-20 13:10:00,20.7,6.2,30.11,NW,320,0.0,0.0,53,0.00,,---,0.00,VWS V14.01,2013-02-20 18:10:00,
2013-02-20 13:15:00,20.7,6.2,30.11,NW,306,0.0,0.0,53,0.00,,---,0.00,VWS V14.01,2013-02-20 18:15:00,
2013-02-20 13:20:00,20.7,6.2,30.11,NW,321,0.0,0.0,53,0.00,,---,0.00,VWS V14.01,2013-02-20 18:20:00,
2013-02-20 13:26:00,20.7,5.8,30.11,West,272,0.0,0.0,52,0.00,,---,0.00,VWS V14.01,2013-02-20 18:26:00,
2013-02-20 13:31:00,20.5,5.2,30.11,NW,309,0.0,0.0,51,0.00,,---,0.00,VWS V14.01,2013-02-20 18:31:00,
2013-02-20 13:36:00,20.7,5.8,30.11,NW,325,0.0,0.0,52,0.00,,---,0.00,VWS V14.01,2013-02-20 18:36:00,
2013-02-20 13:41:00,20.8,6.0,30.11,NW,326,0.0,0.0,52,0.00,,---,0.00,VWS V14.01,2013-02-20 18:41:00,
2013-02-20 13:46:00,21.0,6.2,30.11,NNW,331,0.0,0.0,52,0.00,,---,0.00,VWS V14.01,2013-02-20 18:46:00,
2013-02-20 13:51:00,21.2,6.3,30.11,WNW,284,0.0,0.0,52,0.00,,---,0.00,VWS V14.01,2013-02-20 18:51:00,
2013-02-20 13:56:00,21.2,5.9,30.08,NNW,333,0.0,0.0,51,0.00,,---,0.00,VWS V14.01,2013-02-20 18:56:00,
2013-02-20 14:01:00,21.2,5.9,30.08,NW,321,0.0,0.0,51,0.00,,---,0.00,VWS V14.01,2013-02-20 19:01:00,
2013-02-20 14:06:00,21.2,5.9,30.08,NW,307,0.0,0.0,51,0.00,,---,0.00,VWS V14.01,2013-02-20 19:06:00,
2013-02-20 14:11:00,21.0,5.3,30.11,NNW,332,0.0,0.0,50,0.00,,---,0.00,VWS V14.01,2013-02-20 19:11:00,
2013-02-20 14:16:00,21.0,5.3,30.11,NW,323,0.0,0.0,50,0.00,,---,0.00,VWS V14.01,2013-02-20 19:16:00,
2013-02-20 14:22:00,21.0,5.7,30.11,WNW,300,0.0,0.0,51,0.00,,---,0.00,VWS V14.01,2013-02-20 19:22:00,
2013-02-20 14:27:00,21.2,5.9,30.11,NW,320,0.0,0.0,51,0.00,,---,0.00,VWS V14.01,2013-02-20 19:27:00,
2013-02-20 14:32:00,21.4,6.1,30.11,WNW,300,0.0,0.0,51,0.00,,---,0.00,VWS V14.01,2013-02-20 19:32:00,
2013-02-20 14:37:00,21.6,5.8,30.11,West,262,0.0,0.0,50,0.00,,---,0.00,VWS V14.01,2013-02-20 19:37:00,
2013-02-20 14:42:00,21.6,6.2,30.11,NW,323,0.0,0.0,51,0.00,,---,0.00,VWS V14.01,2013-02-20 19:42:00,
2013-02-20 14:47:00,21.7,6.0,30.11,NNW,327,0.0,0.0,50,0.00,,---,0.00,VWS V14.01,2013-02-20 19:47:00,
2013-02-20 14:52:00,21.6,5.8,30.11,NW,323,0.0,0.0,50,0.00,,---,0.00,VWS V14.01,2013-02-20 19:52:00,
2013-02-20 14:57:00,21.4,5.2,30.11,SSW,209,0.0,0.0,49,0.00,,---,0.00,VWS V14.01,2013-02-20 19:57:00,
2013-02-20 15:02:00,21.6,5.4,30.11,WNW,303,0.0,0.0,49,0.00,,---,0.00,VWS V14.01,2013-02-20 20:02:00,
2013-02-20 15:07:00,21.7,5.5,30.11,WNW,284,0.0,0.0,49,0.00,,---,0.00,VWS V14.01,2013-02-20 20:07:00,
2013-02-20 15:12:00,21.7,5.5,30.11,WNW,287,0.0,0.0,49,0.00,,---,0.00,VWS V14.01,2013-02-20 20:12:00,
2013-02-20 15:17:00,21.7,5.5,30.11,NW,306,0.0,0.0,49,0.00,,---,0.00,VWS V14.01,2013-02-20 20:17:00,
2013-02-20 15:23:00,21.6,5.4,30.11,West,275,0.0,0.0,49,0.00,,---,0.00,VWS V14.01,2013-02-20 20:23:00,
2013-02-20 15:28:00,21.6,5.8,30.11,NW,315,0.0,0.0,50,0.00,,---,0.00,VWS V14.01,2013-02-20 20:28:00,
2013-02-20 15:33:00,21.6,5.8,30.11,NW,316,0.0,0.0,50,0.00,,---,0.00,VWS V14.01,2013-02-20 20:33:00,
2013-02-20 15:38:00,21.6,6.2,30.11,WSW,258,0.0,0.0,51,0.00,,---,0.00,VWS V14.01,2013-02-20 20:38:00,
2013-02-20 15:43:00,21.6,6.2,30.11,WSW,243,0.0,0.0,51,0.00,,---,0.00,VWS V14.01,2013-02-20 20:43:00,
2013-02-20 15:48:00,21.4,6.1,30.11,NW,307,0.0,0.0,51,0.00,,---,0.00,VWS V14.01,2013-02-20 20:48:00,
2013-02-20 15:53:00,21.4,6.5,30.14,NW,312,0.0,0.0,52,0.00,,---,0.00,VWS V14.01,2013-02-20 20:53:00,
2013-02-20 15:58:00,21.4,6.1,30.14,NNW,336,0.0,0.0,51,0.00,,---,0.00,VWS V14.01,2013-02-20 20:58:00,
2013-02-20 16:03:00,21.4,6.5,30.14,NW,304,0.0,0.0,52,0.00,,---,0.00,VWS V14.01,2013-02-20 21:03:00,
2013-02-20 16:08:00,21.4,6.5,30.14,WNW,289,0.0,0.0,52,0.00,,---,0.00,VWS V14.01,2013-02-20 21:08:00,
2013-02-20 16:14:00,21.2,6.8,30.14,NW,313,0.0,0.0,53,0.00,,---,0.00,VWS V14.01,2013-02-20 21:14:00,
2013-02-20 16:19:00,21.2,6.8,30.14,NW,307,0.0,0.0,53,0.00,,---,0.00,VWS V14.01,2013-02-20 21:19:00,
2013-02-20 16:24:00,21.4,6.9,30.14,NNW,343,0.0,0.0,53,0.00,,---,0.00,VWS V14.01,2013-02-20 21:24:00,
2013-02-20 16:29:00,21.4,6.9,30.14,WSW,252,0.0,0.0,53,0.00,,---,0.00,VWS V14.01,2013-02-20 21:29:00,
2013-02-20 16:34:00,21.4,6.9,30.14,NNW,338,0.0,0.0,53,0.00,,---,0.00,VWS V14.01,2013-02-20 21:34:00,
2013-02-20 16:39:00,21.2,6.8,30.16,WNW,283,0.0,0.0,53,0.00,,---,0.00,VWS V14.01,2013-02-20 21:39:00,
2013-02-20 16:44:00,21.2,7.2,30.16,SW,219,0.0,0.0,54,0.00,,---,0.00,VWS V14.01,2013-02-20 21:44:00,
2013-02-20 16:49:00,21.0,7.4,30.16,SW,232,0.0,0.0,55,0.00,,---,0.00,VWS V14.01,2013-02-20 21:49:00,
2013-02-20 16:54:00,21.0,7.4,30.16,WNW,299,0.0,0.0,55,0.00,,---,0.00,VWS V14.01,2013-02-20 21:54:00,
2013-02-20 16:59:00,20.8,7.2,30.16,WSW,251,0.0,0.0,55,0.00,,---,0.00,VWS V14.01,2013-02-20 21:59:00,
2013-02-20 17:04:00,20.8,7.2,30.16,SSE,165,0.0,0.0,55,0.00,,---,0.00,VWS V14.01,2013-02-20 22:04:00,
2013-02-20 17:09:00,21.0,7.4,30.16,WNW,298,0.0,0.0,55,0.00,,---,0.00,VWS V14.01,2013-02-20 22:09:00,
2013-02-20 17:15:00,21.0,7.4,30.16,West,262,0.0,0.0,55,0.00,,---,0.00,VWS V14.01,2013-02-20 22:15:00,
2013-02-20 17:20:00,21.0,7.4,30.16,North,354,0.0,0.0,55,0.00,,---,0.00,VWS V14.01,2013-02-20 22:20:00,
2013-02-20 17:25:00,20.8,7.6,30.16,SW,227,0.0,0.0,56,0.00,,---,0.00,VWS V14.01,2013-02-20 22:25:00,
2013-02-20 17:30:00,20.8,7.6,30.16,NW,315,0.0,0.0,56,0.00,,---,0.00,VWS V14.01,2013-02-20 22:30:00,
2013-02-20 17:35:00,20.8,7.6,30.16,North,351,0.0,0.0,56,0.00,,---,0.00,VWS V14.01,2013-02-20 22:35:00,
2013-02-20 17:40:00,20.8,7.6,30.16,WNW,298,0.0,0.0,56,0.00,,---,0.00,VWS V14.01,2013-02-20 22:40:00,
2013-02-20 17:45:00,21.0,7.8,30.16,WSW,257,0.0,0.0,56,0.00,,---,0.00,VWS V14.01,2013-02-20 22:45:00,
2013-02-20 17:50:00,21.0,7.8,30.16,NNW,329,0.0,0.0,56,0.00,,---,0.00,VWS V14.01,2013-02-20 22:50:00,
2013-02-20 17:55:00,20.8,8.0,30.16,West,280,0.0,0.0,57,0.00,,---,0.00,VWS V14.01,2013-02-20 22:55:00,
2013-02-20 18:00:00,20.8,8.0,30.16,NW,309,0.0,0.0,57,0.00,,---,0.00,VWS V14.01,2013-02-20 23:00:00,
2013-02-20 18:05:00,20.8,8.0,30.16,West,280,0.0,0.0,57,0.00,,---,0.00,VWS V14.01,2013-02-20 23:05:00,
2013-02-20 18:10:00,20.8,8.0,30.16,NW,310,0.0,0.0,57,0.00,,---,0.00,VWS V14.01,2013-02-20 23:10:00,
2013-02-20 18:15:00,20.8,8.4,30.16,West,271,0.0,0.0,58,0.00,,---,0.00,VWS V14.01,2013-02-20 23:15:00,
2013-02-20 18:20:00,20.8,8.4,30.16,NNW,345,0.0,0.0,58,0.00,,---,0.00,VWS V14.01,2013-02-20 23:20:00,
2013-02-20 18:25:00,20.7,8.6,30.16,WNW,297,0.0,0.0,59,0.00,,---,0.00,VWS V14.01,2013-02-20 23:25:00,
2013-02-20 18:30:00,20.7,8.6,30.16,WNW,283,0.0,0.0,59,0.00,,---,0.00,VWS V14.01,2013-02-20 23:30:00,
2013-02-20 18:35:00,20.7,8.6,30.16,NW,311,0.0,0.0,59,0.00,,---,0.00,VWS V14.01,2013-02-20 23:35:00,
2013-02-20 18:40:00,20.7,9.0,30.14,NW,315,0.0,0.0,60,0.00,,---,0.00,VWS V14.01,2013-02-20 23:40:00,
2013-02-20 18:45:00,20.7,9.0,30.14,WNW,288,0.0,0.0,60,0.00,,---,0.00,VWS V14.01,2013-02-20 23:45:00,
2013-02-20 18:50:00,20.7,9.0,30.14,NNW,348,0.0,0.0,60,0.00,,---,0.00,VWS V14.01,2013-02-20 23:50:00,
2013-02-20 18:55:00,20.8,9.2,30.16,NNW,335,0.0,0.0,60,0.00,,---,0.00,VWS V14.01,2013-02-20 23:55:00,
2013-02-20 19:00:00,20.8,9.5,30.16,NNW,332,0.0,0.0,61,0.00,,---,0.00,VWS V14.01,2013-02-21 00:00:00,
2013-02-20 19:06:00,20.8,9.5,30.16,NNW,339,0.0,0.0,61,0.00,,---,0.00,VWS V14.01,2013-02-21 00:06:00,
2013-02-20 19:11:00,20.8,9.5,30.14,NW,325,0.0,0.0,61,0.00,,---,0.00,VWS V14.01,2013-02-21 00:11:00,
2013-02-20 19:16:00,20.8,9.5,30.14,NW,323,0.0,0.0,61,0.00,,---,0.00,VWS V14.01,2013-02-21 00:16:00,
2013-02-20 19:21:00,21.0,9.7,30.14,WNW,283,0.0,0.0,61,0.00,,---,0.00,VWS V14.01,2013-02-21 00:21:00,
2013-02-20 19:26:00,21.0,9.7,30.16,WNW,299,0.0,0.0,61,0.00,,---,0.00,VWS V14.01,2013-02-21 00:26:00,
2013-02-20 19:31:00,21.0,9.7,30.16,NNW,331,0.0,0.0,61,0.00,,---,0.00,VWS V14.01,2013-02-21 00:31:00,
2013-02-20 19:36:00,21.0,9.3,30.16,NNW,337,0.0,0.0,60,0.00,,---,0.00,VWS V14.01,2013-02-21 00:36:00,
2013-02-20 19:41:00,21.2,9.5,30.16,NW,304,0.0,0.0,60,0.00,,---,0.00,VWS V14.01,2013-02-21 00:41:00,
2013-02-20 19:46:00,21.2,9.5,30.16,NNW,348,0.0,0.0,60,0.00,,---,0.00,VWS V14.01,2013-02-21 00:46:00,
2013-02-20 19:51:00,21.2,9.5,30.16,NNW,348,0.0,0.0,60,0.00,,---,0.00,VWS V14.01,2013-02-21 00:51:00,
2013-02-20 19:56:00,21.2,9.5,30.16,NNW,334,0.0,0.0,60,0.00,,---,0.00,VWS V14.01,2013-02-21 00:56:00,
2013-02-20 20:01:00,21.2,9.5,30.16,NW,314,0.0,0.0,60,0.00,,---,0.00,VWS V14.01,2013-02-21 01:01:00,
2013-02-20 20:06:00,21.2,9.9,30.16,NW,315,0.0,0.0,61,0.00,,---,0.00,VWS V14.01,2013-02-21 01:06:00,
2013-02-20 20:11:00,21.2,9.9,30.16,NW,304,0.0,0.0,61,0.00,,---,0.00,VWS V14.01,2013-02-21 01:11:00,
2013-02-20 20:16:00,21.2,9.9,30.16,West,260,0.0,0.0,61,0.00,,---,0.00,VWS V14.01,2013-02-21 01:16:00,
2013-02-20 20:21:00,21.2,9.9,30.16,WNW,284,0.0,0.0,61,0.00,,---,0.00,VWS V14.01,2013-02-21 01:21:00,
2013-02-20 20:26:00,21.2,9.9,30.16,NNW,334,0.0,0.0,61,0.00,,---,0.00,VWS V14.01,2013-02-21 01:26:00,
2013-02-20 20:31:00,21.2,9.9,30.16,NNW,338,0.0,0.0,61,0.00,,---,0.00,VWS V14.01,2013-02-21 01:31:00,
2013-02-20 20:36:00,21.2,9.9,30.16,NW,322,0.0,0.0,61,0.00,,---,0.00,VWS V14.01,2013-02-21 01:36:00,
2013-02-20 20:41:00,21.2,10.2,30.16,NW,312,0.0,0.0,62,0.00,,---,0.00,VWS V14.01,2013-02-21 01:41:00,
2013-02-20 20:46:00,21.2,10.2,30.16,NW,312,0.0,0.0,62,0.00,,---,0.00,VWS V14.01,2013-02-21 01:46:00,
2013-02-20 20:51:00,21.2,10.2,30.16,NW,307,0.0,0.0,62,0.00,,---,0.00,VWS V14.01,2013-02-21 01:51:00,
2013-02-20 20:56:00,21.2,10.6,30.16,NW,304,0.0,0.0,63,0.00,,---,0.00,VWS V14.01,2013-02-21 01:56:00,
2013-02-20 21:02:00,21.2,10.6,30.16,NNW,332,0.0,0.0,63,0.00,,---,0.00,VWS V14.01,2013-02-21 02:02:00,
2013-02-20 21:07:00,21.2,10.6,30.16,WNW,299,0.0,0.0,63,0.00,,---,0.00,VWS V14.01,2013-02-21 02:07:00,
2013-02-20 21:12:00,21.2,10.9,30.16,NW,312,0.0,0.0,64,0.00,,---,0.00,VWS V14.01,2013-02-21 02:12:00,
2013-02-20 21:17:00,21.2,10.6,30.16,NNW,334,0.0,0.0,63,0.00,,---,0.00,VWS V14.01,2013-02-21 02:17:00,
2013-02-20 21:22:00,21.2,10.2,30.16,NNW,336,0.0,0.0,62,0.00,,---,0.00,VWS V14.01,2013-02-21 02:22:00,
2013-02-20 21:27:00,21.2,9.9,30.16,NW,322,0.0,0.0,61,0.00,,---,0.00,VWS V14.01,2013-02-21 02:27:00,
2013-02-20 21:32:00,21.2,9.9,30.16,NW,314,0.0,0.0,61,0.00,,---,0.00,VWS V14.01,2013-02-21 02:32:00,
2013-02-20 21:37:00,21.2,9.9,30.16,NW,307,0.0,0.0,61,0.00,,---,0.00,VWS V14.01,2013-02-21 02:37:00,
2013-02-20 21:42:00,21.2,9.5,30.16,WNW,296,0.0,0.0,60,0.00,,---,0.00,VWS V14.01,2013-02-21 02:42:00,
2013-02-20 21:47:00,21.2,9.1,30.16,NW,322,0.0,0.0,59,0.00,,---,0.00,VWS V14.01,2013-02-21 02:47:00,
2013-02-20 21:52:00,21.2,9.1,30.16,NNW,341,0.0,0.0,59,0.00,,---,0.00,VWS V14.01,2013-02-21 02:52:00,
2013-02-20 21:57:00,21.2,9.1,30.16,NW,320,0.0,0.0,59,0.00,,---,0.00,VWS V14.01,2013-02-21 02:57:00,
2013-02-20 22:02:00,21.2,9.1,30.16,NW,316,0.0,0.0,59,0.00,,---,0.00,VWS V14.01,2013-02-21 03:02:00,
2013-02-20 22:07:00,21.2,9.1,30.19,NW,323,0.0,0.0,59,0.00,,---,0.00,VWS V14.01,2013-02-21 03:07:00,
2013-02-20 22:12:00,21.2,9.5,30.19,NNW,340,0.0,0.0,60,0.00,,---,0.00,VWS V14.01,2013-02-21 03:12:00,
2013-02-20 22:18:00,21.0,9.7,30.19,NNW,327,0.0,0.0,61,0.00,,---,0.00,VWS V14.01,2013-02-21 03:18:00,
2013-02-20 22:23:00,21.0,9.7,30.16,NW,320,0.0,0.0,61,0.00,,---,0.00,VWS V14.01,2013-02-21 03:23:00,
2013-02-20 22:28:00,20.8,9.5,30.16,NW,313,0.0,0.0,61,0.00,,---,0.00,VWS V14.01,2013-02-21 03:28:00,
2013-02-20 22:33:00,20.8,9.2,30.16,NW,318,0.0,0.0,60,0.00,,---,0.00,VWS V14.01,2013-02-21 03:33:00,
2013-02-20 22:38:00,20.8,9.5,30.16,WNW,287,0.0,0.0,61,0.00,,---,0.00,VWS V14.01,2013-02-21 03:38:00,
2013-02-20 22:43:00,20.7,9.4,30.16,WNW,298,0.0,0.0,61,0.00,,---,0.00,VWS V14.01,2013-02-21 03:43:00,
2013-02-20 22:48:00,20.7,9.4,30.16,North,357,0.0,0.0,61,0.00,,---,0.00,VWS V14.01,2013-02-21 03:48:00,
2013-02-20 22:53:00,20.7,9.4,30.19,NNW,333,0.0,0.0,61,0.00,,---,0.00,VWS V14.01,2013-02-21 03:53:00,
2013-02-20 22:58:00,20.7,9.4,30.19,NNW,339,0.0,0.0,61,0.00,,---,0.00,VWS V14.01,2013-02-21 03:58:00,
2013-02-20 23:03:00,20.7,9.4,30.19,NW,312,0.0,0.0,61,0.00,,---,0.00,VWS V14.01,2013-02-21 04:03:00,
2013-02-20 23:08:00,20.5,9.6,30.19,NW,320,0.0,0.0,62,0.00,,---,0.00,VWS V14.01,2013-02-21 04:08:00,
2013-02-20 23:13:00,20.5,9.9,30.19,WNW,301,0.0,0.0,63,0.00,,---,0.00,VWS V14.01,2013-02-21 04:13:00,
2013-02-20 23:18:00,20.3,10.1,30.19,North,357,0.0,0.0,64,0.00,,---,0.00,VWS V14.01,2013-02-21 04:18:00,
2013-02-20 23:23:00,20.3,10.1,30.19,NW,318,0.0,0.0,64,0.00,,---,0.00,VWS V14.01,2013-02-21 04:23:00,
2013-02-20 23:28:00,20.3,10.1,30.19,NNW,328,0.0,0.0,64,0.00,,---,0.00,VWS V14.01,2013-02-21 04:28:00,
2013-02-20 23:33:00,20.3,10.4,30.19,NNW,334,0.0,0.0,65,0.00,,---,0.00,VWS V14.01,2013-02-21 04:33:00,
2013-02-20 23:38:00,20.3,10.4,30.19,NNE,22,0.0,0.0,65,0.00,,---,0.00,VWS V14.01,2013-02-21 04:38:00,
2013-02-20 23:44:00,20.1,10.3,30.19,NW,316,0.0,0.0,65,0.00,,---,0.00,VWS V14.01,2013-02-21 04:44:00,
2013-02-20 23:49:00,19.9,10.1,30.19,NW,310,0.0,0.0,65,0.00,,---,0.00,VWS V14.01,2013-02-21 04:49:00,
2013-02-20 23:54:00,19.9,9.7,30.19,WNW,301,0.0,0.0,64,0.00,,---,0.00,VWS V14.01,2013-02-21 04:54:00,
2013-02-20 23:59:00,19.9,9.4,30.19,NW,323,0.0,0.0,63,0.00,,---,0.00,VWS V14.01,2013-02-21 04:59:00,